www.pogodaiklimat.ru

Погода и климат >> Архив погоды >> Франция >> Ла-Рошель аэропорт


ПОГОДА в Ла-Рошель аэропорту

  • Прогноз погоды в Ла-Рошель аэропорту
  • Монитор погоды в Ла-Рошель аэропорту

АРХИВ ПОГОДЫ в Ла-Рошель аэропорту

Время (UTC), дата Ветер
(напр.,м/с)
 
Видим.   Явления Облачность Т
(С)
Тd
(С)
f
(%)
Тe
(С)
Тes
(С)
Комфортность P
(гПа)
Po
(гПа)
Тmin
(С)
Tmax
(С)
R
(мм)
R24
(мм)
S
(см)
01 10.09 СЗ 3 60 км н/о +13.6 +10.6 82 +12 +12 1010.7 1008.5
02 10.09 З 2 55 км 10/10 540 м
[]
+13.8 +11.3 85 +14 +14 1010.7 1008.5
03 10.09 З 2
{5}
55 км 10/10 300 м
[]
+13.9 +11.6 86 +14 +14 1010.5 1008.4 0
04 10.09 В 1 40 км 9/9 420 м
[]
+12.4 +11.0 91 +12 +12 1010.9 1008.7 0.0
05 10.09 СВ 1 30 км н/о +10.8 +9.6 92 +10 +10 1011.7 1009.5
06 10.09 СВ 3
{8}
40 км 10/10 300 м
[]
+11.3 +10.7 96 +10 +10 1013.1 1010.9 +10.3 +17.7 9 0
07 10.09 СВ 3 24 км н/о +12.2 +11.4 95 +11 +11 1014.0 1011.8
08 10.09 В 3 35 км 10/10 1500 м
[]
+13.0 +11.7 92 +12 +12 1015.1 1012.9
09 10.09 СВ 4
{10}
50 км н/о +16.2 +11.6 74 +16 +16 1016.1 1014.0 0
10 10.09 В 3 30 км н/о +16.8 +11.3 70 +17 +17 1016.7 1014.6
11 10.09 СВ 3 29 км н/о +19.9 +10.3 54 +21 +21 комфорт 1017.3 1015.2
12 10.09 СВ 3
{13}
28 км н/о +21.7 +8.6 43 +23 +23 комфорт 1017.6 1015.5 0
13 10.09 СВ 3 29 км н/о +22.3 +8.8 42 +24 +24 комфорт 1018.0 1015.9
14 10.09 С 3 27 км н/о +22.9 +8.9 41 +24 +24 комфорт 1018.1 1016.0
15 10.09 С 3
{11}
26 км н/о +23.1 +8.8 40 +24 +24 комфорт 1018.1 1016.0 0
16 10.09 С 3 30 км н/о +23.5 +8.0 37 +24 +24 комфорт 1018.5 1016.4
17 10.09 С 3 30 км н/о +22.6 +8.7 41 +24 +24 комфорт 1019.2 1017.1
18 10.09 С 3
{9}
55 км н/о +20.7 +9.3 48 +23 +23 комфорт 1020.0 1017.9 +11.3 +23.6 0
19 10.09 С 3 60 км н/о +18.6 +9.9 57 +19 +19 1020.9 1018.8
20 10.09 С 2 60 км н/о +17.6 +9.7 60 +18 +18 1021.8 1019.7
21 10.09 С 2
{6}
60 км н/о +16.7 +9.6 63 +17 +17 1022.5 1020.3 0
22 10.09 С 2 60 км н/о +16.0 +10.1 68 +16 +16 1023.1 1020.9
23 10.09 С 2 60 км н/о +15.7 +10.2 70 +16 +16 1023.5 1021.3
00 11.09 С 3
{9}
60 км н/о +15.3 +10.5 73 +15 +15 1024.1 1021.9 0
01 11.09 С 2 55 км н/о +14.1 +10.9 81 +14 +14 1023.8 1021.6
02 11.09 С 2 40 км н/о +13.7 +11.4 86 +13 +13 1024.2 1022.0
03 11.09 С 2
{7}
30 км н/о +13.4 +11.5 88 +13 +13 1024.1 1021.9 0
04 11.09 СВ 2 19 км н/о +12.9 +11.5 91 +12 +12 1024.3 1022.1
05 11.09 СВ 2-3
{3}
15 км н/о +12.4 +11.3 93 +12 +12 1025.0 1022.8
06 11.09 СЗ 2
{5}
15 км н/о +12.3 +11.2 93 +12 +12 1025.7 1023.5 +12.1 +20.7 0
07 11.09 С 2 16 км н/о +13.6 +12.2 91 +13 +13 1026.4 1024.2
08 11.09 С 2 18 км 9/9
[]
+14.7 +12.7 88 +15 +15 1027.2 1025.0
09 11.09 С 1
{5}
19 км н/о +16.2 +12.4 78 +17 +17 1027.8 1025.6 0
10 11.09 СЗ 2 30 км н/о +18.0 +12.4 70 +19 +19 1028.0 1025.8
11 11.09 СЗ 2 30 км н/о +19.0 +12.3 65 +20 +20 1027.9 1025.8
12 11.09 СЗ 3
{8}
28 км н/о +20.0 +12.7 63 +22 +22 комфорт 1028.1 1026.0 0
13 11.09 СЗ 4 26 км н/о +19.9 +14.9 73 +22 +22 комфорт 1028.1 1026.0
14 11.09 СЗ 4 19 км н/о +19.8 +14.4 71 +22 +22 комфорт 1027.9 1025.8
15 11.09 СЗ 4
{11}
16 км н/о +19.5 +13.7 69 +21 +21 комфорт 1028.0 1025.9 0
16 11.09 З 4 15 км н/о +19.0 +10.5 58 +20 +20 1028.3 1026.1
17 11.09 СЗ 4 16 км н/о +18.0 +12.0 68 +18 +18 1028.5 1026.3
18 11.09 СЗ 4
{10}
35 км н/о +16.9 +13.4 80 +17 +17 1028.6 1026.4 +12.3 +20.5 0
19 11.09 СЗ 3 45 км н/о +16.6 +13.9 84 +16 +16 1029.3 1027.1
20 11.09 СЗ 3 50 км н/о +16.6 +14.1 85 +16 +16 1029.6 1027.4
21 11.09 СЗ 3
{8}
50 км н/о +16.4 +14.1 86 +16 +16 1030.1 1027.9 0
22 11.09 С 3 50 км н/о +16.1 +14.1 88 +16 +16 1030.3 1028.1
23 11.09 С 2 50 км н/о +15.3 +13.8 91 +15 +15 1030.4 1028.2
00 12.09 С 2
{5}
35 км н/о +15.2 +14.1 93 +15 +15 1030.7 1028.5
01 12.09 С 3 45 км 10/10 210 м
[]
+15.7 +14.4 92 +15 +15 1031.1 1028.9
02 12.09 С 3 55 км 10/10 240 м
[]
+15.8 +14.3 91 +15 +15 1030.8 1028.6
03 12.09 С 2
{6}
50 км 10/10 200 м
[]
+16.1 +14.5 90 +16 +16 1030.9 1028.7 0
04 12.09 С 1 45 км 9/9 330 м
[]
+15.3 +13.8 91 +16 +16 1030.7 1028.5
05 12.09 С 2 45 км 10/10 270 м
[]
+16.1 +14.8 92 +16 +16 1030.8 1028.6
06 12.09 С 2
{5}
45 км 10/10 200 м
[]
+16.1 +14.6 91 +16 +16 1031.2 1029.0 +15.2 +16.9 0
07 12.09 СВ 1 40 км 10/10 270 м
[]
+16.5 +14.9 90 +17 +17 1032.0 1029.8
08 12.09 СВ 1 5000 м 10/10 300 м
[]
+17.1 +14.7 86 +18 +18 1032.6 1030.4
09 12.09 В 1
{4}
45 км 10/10 300 м
[]
+17.9 +14.8 82 +19 +19 1033.1 1030.9 0
10 12.09 ЮЗ 1 35 км 10/10 420 м
[]
+18.8 +14.7 77 +21 +21 комфорт 1033.5 1031.3
11 12.09 СЗ 2 30 км 10/10 540 м
[]
+19.3 +15.4 78 +22 +22 комфорт 1033.5 1031.3
12 12.09 СЗ 2
{6}
19 км н/о +20.1 +14.7 71 +23 +23 комфорт 1033.2 1031.1 0
13 12.09 СЗ 2 35 км н/о +20.9 +14.1 65 +25 +25 комфорт 1032.8 1030.7
14 12.09 СЗ 2 30 км н/о +21.6 +15.7 69 +25 +25 комфорт 1032.2 1030.1
15 12.09 СЗ 3
{7}
28 км н/о +21.2 +16.4 74 +25 +25 комфорт 1031.6 1029.5 0
16 12.09 СЗ 3 25 км н/о +20.6 +16.4 77 +24 +24 комфорт 1031.3 1029.2
17 12.09 СЗ 3 24 км н/о +19.8 +16.6 82 +22 +22 комфорт 1031.0 1028.9
18 12.09 СЗ 5
{8}
25 км н/о +19.3 +16.7 85 +21 +21 комфорт 1030.9 1028.8 +16.0 +22.1 0
19 12.09 СЗ 2 60 км н/о +18.6 +16.9 90 +20 +20 1031.4 1029.2
20 12.09 СЗ 2 55 км н/о +18.3 +17.0 92 +20 +20 1031.7 1029.5
21 12.09 С 3
{8}
60 км н/о +18.2 +16.4 89 +19 +19 1031.8 1029.6 0
22 12.09 С 2 60 км н/о +17.4 +15.7 90 +18 +18 1031.8 1029.6
23 12.09 С 2 60 км н/о +16.6 +15.3 92 +17 +17 1031.6 1029.4
00 13.09 С 2-3
{3}
60 км н/о +16.6 +15.5 93 +17 +17 1031.9 1029.7 0
01 13.09 С 2-3
{3}
60 км н/о +16.3 +15.2 93 +16 +16 1031.5 1029.3
02 13.09 СВ 2 55 км н/о +16.1 +15.0 93 +16 +16 1031.1 1028.9
03 13.09 СВ 2-2
{3}
45 км н/о +15.3 +14.0 92 +15 +15 1030.9 1028.7 0
04 13.09 СВ 2 35 км н/о +15.0 +13.9 93 +15 +15 1030.8 1028.6
05 13.09 СВ 2 40 км н/о +14.8 +13.8 94 +15 +15 1031.0 1028.8
06 13.09 СВ 2
{4}
17 км н/о +14.8 +13.8 94 +15 +15 1031.0 1028.8 +14.5 +19.3 0
07 13.09 СВ 2 45 км н/о +16.9 +15.1 89 +17 +17 1031.1 1028.9
08 13.09 СВ 3 40 км н/о +20.1 +16.5 80 +23 +23 комфорт 1031.1 1029.0
09 13.09 СВ 3
{8}
40 км н/о +23.0 +16.8 68 +28 +28 душно 1030.9 1028.8 0
10 13.09 СВ 3 35 км н/о +25.4 +16.8 59 +29 +29 душно 1030.1 1028.0
11 13.09 СВ 4 30 км н/о +27.3 +16.6 52 +31 +31 душно 1029.7 1027.6
12 13.09 СВ 3
{11}
35 км н/о +28.4 +16.0 47 +32 +32 душно 1029.5 1027.4 0
13 13.09 СВ 3 28 км н/о +29.0 +14.4 41 +31 +31 жарко 1029.0 1026.9
14 13.09 СВ 3 29 км н/о +30.1 +14.6 39 +32 +32 жарко 1028.1 1026.0
15 13.09 СВ 3
{10}
29 км н/о +30.1 +14.6 39 +32 +32 жарко 1027.5 1025.4 0
16 13.09 В 3 29 км н/о +30.2 +14.3 38 +32 +32 жарко 1027.6 1025.5
17 13.09 СВ 3 35 км н/о +29.5 +14.9 41 +32 +32 душно 1027.4 1025.3
18 13.09 СВ 3
{9}
55 км н/о +27.9 +14.9 45 +30 +30 жарко 1027.2 1025.1 +14.8 +30.4 0
19 13.09 СВ 3 60 км н/о +25.4 +15.1 53 +28 +28 жарко 1027.4 1025.3
20 13.09 СВ 3 60 км н/о +24.3 +15.2 57 +27 +27 жарко 1027.7 1025.6
21 13.09 СВ 3
{7}
60 км н/о +21.8 +15.4 67 +25 +25 комфорт 1027.5 1025.4 0
22 13.09 СВ 3 60 км н/о +20.8 +15.3 71 +24 +24 комфорт 1027.4 1025.3
23 13.09 СВ 2 60 км н/о +20.3 +14.9 71 +23 +23 комфорт 1027.3 1025.2
00 14.09 СВ 2
{6}
60 км н/о +19.5 +14.5 73 +22 +22 комфорт 1027.5 1025.4 0
01 14.09 СВ 3 60 км н/о +20.2 +14.3 69 +23 +23 комфорт 1027.1 1025.0
02 14.09 СВ 4 60 км н/о +19.9 +14.3 70 +22 +22 комфорт 1026.7 1024.6
03 14.09 СВ 3
{9}
60 км н/о +19.2 +14.0 72 +21 +21 комфорт 1026.3 1024.2 0
04 14.09 СВ 4 60 км н/о +18.9 +14.0 73 +20 +20 1026.1 1024.0
05 14.09 СВ 4 55 км н/о +18.5 +14.2 76 +19 +19 1026.2 1024.1
06 14.09 СВ 4
{11}
60 км 8/0
[]
+18.2 +14.3 78 +18 +18 1026.4 1024.3 +18.1 +27.9 0
07 14.09 В 4 45 км н/о +18.8 +14.5 76 +20 +20 1026.7 1024.6
08 14.09 СВ 4 35 км н/о +20.5 +14.8 70 +23 +23 комфорт 1026.9 1024.8
09 14.09 СВ 4
{12}
24 км н/о +21.5 +15.1 67 +25 +25 комфорт 1026.6 1024.5 0
10 14.09 СВ 4 23 км н/о +24.4 +15.6 58 +27 +27 жарко 1026.5 1024.4
11 14.09 В 3 35 км н/о +26.4 +16.0 53 +30 +30 душно 1026.2 1024.1
12 14.09 В 3
{9}
45 км н/о +28.5 +15.8 46 +32 +32 душно 1025.6 1023.5 0
13 14.09 В 2 40 км н/о +30.1 +16.1 43 +33 +33 душно 1025.0 1022.9
14 14.09 В 2 40 км н/о +31.5 +15.5 38 +34 +34 душно 1024.4 1022.3
15 14.09 СВ 2
{7}
60 км н/о +31.3 +16.1 40 +34 +34 душно 1024.0 1021.9 0
16 14.09 СВ 2 45 км н/о +31.2 +14.8 37 +33 +33 жарко 1023.8 1021.7
17 14.09 В 2 40 км н/о +31.0 +15.4 39 +33 +33 душно 1023.8 1021.7
18 14.09 СВ 3
{7}
55 км н/о +28.7 +15.9 46 +32 +32 душно 1023.8 1021.7 +18.2 +31.7 0
19 14.09 СВ 2 60 км н/о +25.2 +15.5 55 +28 +28 жарко 1024.3 1022.2
20 14.09 СВ 1 60 км н/о +23.3 +15.1 60 +27 +27 душно 1024.8 1022.7
21 14.09 В 2
{5}
60 км н/о +22.9 +15.2 62 +27 +27 душно 1024.6 1022.5 0
22 14.09 В 2 60 км н/о +21.8 +15.2 66 +25 +25 комфорт 1024.2 1022.1
23 14.09 С 1 60 км н/о +20.0 +14.8 72 +23 +23 комфорт 1024.1 1022.0
00 15.09 СВ 1
{4}
60 км н/о +19.4 +14.6 74 +22 +22 комфорт 1024.2 1022.1 0
01 15.09 СВ 1 55 км н/о +18.6 +14.3 76 +20 +20 1024.1 1022.0
02 15.09 СВ 2 60 км н/о +18.6 +14.7 78 +20 +20 1023.6 1021.5
03 15.09 СВ 1
{5}
60 км н/о +19.0 +14.3 74 +21 +21 комфорт 1023.3 1021.2 0
04 15.09 СВ 1 60 км н/о +18.2 +13.9 76 +20 +20 1022.9 1020.8
05 15.09 В 2 60 км н/о +17.4 +13.7 79 +18 +18 1023.0 1020.9
06 15.09 В 1
{4}
55 км н/о +17.5 +13.8 79 +19 +19 1023.2 1021.1 +17.2 +28.7 0
07 15.09 СВ 2 50 км н/о +19.2 +14.7 75 +21 +21 комфорт 1023.2 1021.1
08 15.09 В 2 55 км н/о +22.4 +14.8 62 +26 +26 жарко 1023.7 1021.6
09 15.09 СВ 2
{6}
50 км н/о +25.0 +15.3 55 +28 +28 жарко 1023.7 1021.6 0
10 15.09 СВ 3 45 км н/о +27.6 +15.6 48 +31 +31 душно 1023.4 1021.3
11 15.09 В 3 40 км н/о +29.8 +15.5 42 +33 +33 душно 1022.8 1020.7
12 15.09 СВ 3
{9}
35 км н/о +30.9 +15.3 39 +33 +33 душно 1022.2 1020.1 0
13 15.09 В 2 25 км н/о +32.3 +14.9 35 +34 +34 душно 1021.6 1019.6
14 15.09 СЗ 2 60 км н/о +30.8 +16.0 41 +34 +34 очень
душно
1020.9 1018.9
15 15.09 СЗ 2
{7}
55 км н/о +26.5 +17.3 57 +31 +31 душно 1020.5 1018.4 0
16 15.09 СЗ 2 40 км н/о +26.2 +16.4 55 +30 +30 душно 1020.2 1018.1
17 15.09 СЗ 3 17 км н/о +24.2 +16.7 63 +28 +28 душно 1019.8 1017.7
18 15.09 СЗ 2
{7}
60 км н/о +23.6 +16.4 64 +27 +27 жарко 1020.0 1017.9 +17.5 +32.6 0
19 15.09 СЗ 1 60 км н/о +21.7 +16.6 73 +26 +26 душно 1020.3 1018.2
20 15.09 С 1 60 км н/о +22.1 +17.0 73 +27 +27 душно 1020.7 1018.6
21 15.09 СВ 2
{6}
60 км н/о +23.5 +13.9 55 +26 +26 жарко 1020.8 1018.7 0
22 15.09 СВ 3 60 км н/о +23.5 +13.1 52 +26 +26 жарко 1020.9 1018.8
23 15.09 СВ 2 60 км н/о +22.2 +12.7 55 +25 +25 комфорт 1020.5 1018.4
00 16.09 СВ 2
{6}
60 км н/о +21.0 +12.7 59 +24 +24 комфорт 1020.5 1018.4 0
01 16.09 СВ 2 60 км н/о +19.8 +13.5 67 +22 +22 комфорт 1020.6 1018.5
02 16.09 СВ 2 60 км н/о +19.4 +13.1 67 +22 +22 комфорт 1020.3 1018.2
03 16.09 СВ 2
{5}
60 км н/о +18.8 +13.9 73 +20 +20 1020.2 1018.1 0
04 16.09 СВ 2 60 км н/о +18.6 +13.5 72 +20 +20 1019.8 1017.7
05 16.09 СВ 2 60 км н/о +18.2 +13.5 74 +19 +19 1019.7 1017.6
06 16.09 СВ 2
{5}
55 км н/о +17.9 +13.0 73 +19 +19 1019.9 1017.8 +17.9 +24.1 0
07 16.09 СВ 2 45 км н/о +19.5 +13.2 67 +22 +22 комфорт 1020.1 1018.0
08 16.09 С 2 60 км н/о +21.3 +14.0 63 +24 +24 комфорт 1020.6 1018.5
09 16.09 СВ 3
{7}
60 км н/о +24.8 +13.0 48 +27 +27 жарко 1021.0 1018.9 0
10 16.09 СВ 2 60 км н/о +27.6 +13.9 43 +30 +30 жарко 1020.7 1018.6
11 16.09 СВ 2 55 км н/о +29.6 +14.2 39 +32 +32 душно 1020.3 1018.2
12 16.09 С 2-4
{4}
19 км н/о +30.6 +15.1 39 +33 +33 душно 1019.6 1017.6
13 16.09 СЗ 3 45 км н/о +29.5 +16.0 44 +33 +33 душно 1019.2 1017.1
14 16.09 СЗ 3 35 км н/о +27.5 +15.2 47 +30 +30 жарко 1018.9 1016.8
15 16.09 СЗ 3
{8}
20 км н/о +27.9 +15.5 47 +31 +31 душно 1018.6 1016.5 0
16 16.09 СЗ 3 23 км н/о +26.7 +15.4 50 +30 +30 душно 1018.1 1016.0
17 16.09 СЗ 2 30 км н/о +23.9 +16.7 64 +27 +27 жарко 1018.0 1015.9
18 16.09 С 1
{5}
60 км н/о +23.0 +16.5 67 +28 +28 душно 1018.3 1016.2 +17.9 +31.1 0
19 16.09 С 3 60 км н/о +25.8 +13.3 46 +28 +28 жарко 1018.7 1016.6
20 16.09 С 3 55 км н/о +24.5 +13.4 50 +27 +27 жарко 1019.0 1016.9
21 16.09 СВ 3
{7}
60 км н/о +23.2 +13.1 53 +26 +26 жарко 1019.4 1017.3 0
22 16.09 СВ 2 60 км н/о +22.2 +11.9 52 +25 +25 комфорт 1019.4 1017.3
23 16.09 СВ 3 60 км н/о +20.9 +11.2 54 +23 +23 комфорт 1019.3 1017.2
00 17.09 СВ 3
{7}
60 км н/о +19.4 +10.4 56 +21 +21 комфорт 1019.2 1017.1 0
01 17.09 СВ 2 60 км н/о +18.5 +10.3 59 +19 +19 1019.2 1017.1

 

Местоположение метеостанции Ла-Рошель аэропорт (Франция): широта 46.18 долгота -1.19 высота над уровнем моря 20 м.

В архиве по умолчанию представлена погода в Ла-Рошель аэропорту за последнюю неделю. Архивные данные за месяц целиком и за предыдущие месяцы, начиная с января 2011 года, Вы можете получить, выбрав интересующий диапазон дат из раскрывающегося списка и нажав кнопку "Ввод!".


*Определитесь, кто Вы:
робот инопланетянин человек

Внимание! Время в таблицах - всемирное. Для получения местного времени необходимо прибавить поправку, которая равна 1 ч.

Смотрите также архив погоды в соседних городах и на ближайших метеорологических станциях:

Погода в Ла-Рошеле (Франция) (5 км)
Погода в Шассироне (Франция) (23 км)
Погода в Ла-Рош-сюр-Йоне (Франция) (60 км)
Погода в Ниоре (Франция) (63 км)
Погода в Коньяке (Франция) (88 км)
Погода на Йе (Франция) (105 км)
Погода в Нанте (Франция) (112 км)
Погода в Пуатье (Франция) (123 км)
Погода на Шемулене (Франция) (144 км)
Погода в Сен-Назере (Франция) (147 км)

Пояснения к столбцам:

Ветер - указаны скорость ветра в м/с - средняя за 10 мин, порывы в срок и между сроками (в фигурных скобках) и направление, откуда дует ветер: С - северный, СВ - северо-восточный, В - восточный, ЮВ - юго-восточный, Ю - южный, ЮЗ - юго-западный, З - западный, СЗ - северо-западный.
Видимость - горизонтальная дальность видимости в метрах или километрах. При видимости от 1 до 10 км при отсутствии осадков обычно наблюдается дымка, при ухудшении видимости до 1 км и менее - туман. В сухую погоду видимость может ухудшаться дымом, пылью или мглою.
Явления - указаны атмосферные явления, наблюдавшиеся в срок или в последний час перед сроком; фигурными скобками обозначены явления, наблюдавшиеся между сроками (за 1-3 часа до срока); квадратными скобками обозначены град или гололедные отложения с указанием их диаметра в мм.
Облачность - указаны через наклонную черту общая и нижняя облачность в баллах и высота нижней границы облаков в метрах; квадратными скобками обозначены формы облаков: Ci - перистые, Cs - перисто-слоистые, Cc - перисто-кучевые, Ac - высококучевые, As - высокослоистые, Sc - слоисто-кучевые, Ns - слоисто-дождевые, Cu - кучевые, Cb - кучево-дождевые. Подробнее классификацию облаков см. в Атласе облаков (PDF).
T - Температура воздуха - температура, измеренная на высоте 2 м над землей.
Td - Температура точки росы - температура, при понижении до которой содержащийся в воздухе водяной пар достигнет насыщения.
f - Относительная влажность воздуха - влажноcть воздуха, измеренная на высоте 2 м над землей.
Te - Эффективная температура - температура, которую ощущает одетый по сезону человек в тени. Характеристика душности погоды. При расчете учитывается влияние влажности воздуха и скорости ветра на теплоощущения человека.
Tes - Эффективная температура на солнце - температура, которую ощущает человек, с поправкой на солнечный нагрев. Характеристика знойности погоды. Зависит от высоты солнца над горизонтом, облачности и скорости ветра. Ночью, в пасмурную погоду, а также при ветре 12 м/с и более поправка равна нулю.
P - Атмосферное давление - приведенное к уровню моря атмосферное давление.
Po - Атмосферное давление - измеренное на уровне метеостанции атмосферное давление.
Tmin - Минимальная температура - минимум температуры воздуха на высоте 2 м над землей.
Tmax - Максимальная температура - максимум температуры воздуха на высоте 2 м над землей.
R - Количество осадков - Количество выпавших осадков за период времени, мм. При наведении курсора мыши на число - период времени, за который выпало указанное количество осадков.
R24 - Количество осадков - Количество выпавших осадков за 24 часа, мм.
S - Снежный покров - Высота снежного покрова, см. При наведении курсора мыши на число - состояние снежного покрова и степень покрытия местности в баллах.